Date String (YYYY-MM-DD hh:mm:ss) UTC,Instrument flags,absolute air pressure of the measurement (hPa),sample flow rate (lpm),inlet stack bypass flow (lpm),air temperature of the measurement (°C),ambient temperature measured by the external sensor (°C),aerosol sample conditioner tube jacket temperature (°C),OPC LED temperature (°C),internal box temperature (°C),relative humidity of the measurement (%),span deviation,mass concentration of particles derived from Lorenz-Mie calculation of OPC scattering (μg/m³),mass concentration of particles derived from Lorenz-Mie calculation of OPC scattering (μg/m³),mass concentration of particles derived from Lorenz-Mie calculation of OPC scattering (μg/m³)
DateTimeUTC,F1_M11,P_M11,Q1_M11,Q2_M11,T1_M11,T2_M11,T3_M11,T4_M11,T5_M11,U1_M11,ZSPAN_M11,X2_M11,X0_M11,X1_M11
2024-02-22 18:00:00,SystemResetWarning,0832.2,4.99,000.00,020.0,019.5,000.0,028.4,021.8,26.9,0000.0,0002.84,0003.52,0002.65
2024-02-22 18:01:00,SystemResetWarning,0832.2,5.00,000.00,020.0,019.5,000.0,028.4,021.8,27.9,0000.0,0002.84,0003.56,0002.63
2024-02-22 18:02:00,SystemResetWarning,0832.2,5.00,000.00,020.0,019.5,000.0,028.4,021.8,27.2,0000.0,0002.85,0003.60,0002.62
2024-02-22 18:03:00,SystemResetWarning,0832.2,5.00,000.00,020.0,019.5,000.0,028.5,021.8,27.0,0000.0,0002.78,0003.47,0002.59
2024-02-22 18:04:00,SystemResetWarning,0832.2,5.00,000.00,020.0,019.5,000.0,028.5,021.8,27.1,0000.0,0002.70,0003.28,0002.56
2024-02-22 18:05:00,SystemResetWarning,0832.2,5.00,000.00,020.0,019.5,000.0,028.5,021.8,27.2,0000.0,0002.70,0003.29,0002.55
2024-02-22 18:06:00,SystemResetWarning,0832.2,5.00,000.00,020.0,019.5,000.0,028.5,021.8,27.1,0000.0,0002.70,0003.29,0002.56
2024-02-22 18:07:00,SystemResetWarning,0832.2,5.00,000.00,020.0,019.5,000.0,028.4,021.8,27.1,0000.0,0002.72,0003.31,0002.57
2024-02-22 18:08:00,SystemResetWarning,0832.2,5.00,000.00,020.0,019.5,000.0,028.4,021.8,27.0,0000.0,0002.73,0003.30,0002.58
2024-02-22 18:09:00,SystemResetWarning,0832.2,5.01,000.00,020.0,019.5,000.0,028.4,021.8,27.0,0000.0,0002.72,0003.23,0002.59
2024-02-22 18:10:00,SystemResetWarning,0832.2,5.01,000.00,020.0,019.5,000.0,028.4,021.8,26.9,0000.0,0002.74,0003.26,0002.60
2024-02-22 18:11:00,SystemResetWarning,0832.2,5.00,000.00,020.0,019.5,000.0,028.4,021.8,26.9,0000.0,0002.79,0003.32,0002.63
2024-02-22 18:12:00,SystemResetWarning,0832.2,5.00,000.00,020.0,019.5,000.0,028.4,021.8,27.0,0000.0,0002.79,0003.31,0002.65
2024-02-22 18:13:00,SystemResetWarning,0832.2,4.99,000.00,020.0,019.5,000.0,028.5,021.8,27.2,0000.0,0002.78,0003.23,0002.67
2024-02-22 18:14:00,SystemResetWarning,0832.2,4.99,000.00,020.0,019.5,000.0,028.5,021.8,27.3,0000.0,0002.81,0003.26,0002.70
2024-02-22 18:15:00,SystemResetWarning,0832.2,5.00,000.00,020.0,019.5,000.0,028.5,021.8,27.2,0000.0,0002.85,0003.32,0002.73
2024-02-22 18:16:00,SystemResetWarning,0832.2,5.01,000.00,020.0,019.5,000.0,028.4,021.8,27.0,0000.0,0002.91,0003.46,0002.75
2024-02-22 18:17:00,SystemResetWarning,0832.2,5.01,000.00,020.0,019.5,000.0,028.4,021.8,26.8,0000.0,0002.98,0003.66,0002.78
2024-02-22 18:18:00,SystemResetWarning,0832.2,4.99,000.00,020.0,019.5,000.0,028.4,021.8,26.8,0000.0,0003.04,0003.75,0002.81
2024-02-22 18:19:00,SystemResetWarning,0832.2,4.99,000.00,020.0,019.5,000.0,028.4,021.8,26.6,0000.0,0003.07,0003.81,0002.83
2024-02-22 18:20:00,SystemResetWarning,0832.2,4.99,000.00,020.0,019.5,000.0,028.4,021.8,26.6,0000.0,0003.10,0003.90,0002.86
2024-02-22 18:21:00,SystemResetWarning,0832.2,5.00,000.00,020.0,019.5,000.0,028.4,021.8,26.5,0000.0,0003.11,0003.92,0002.87
2024-02-22 18:22:00,SystemResetWarning,0832.2,5.01,000.00,020.0,019.5,000.0,028.4,021.8,26.6,0000.0,0003.12,0003.97,0002.88
2024-02-22 18:23:00,SystemResetWarning,0832.2,5.01,000.00,020.0,019.5,000.0,028.4,021.8,26.7,0000.0,0003.15,0004.06,0002.91
2024-02-22 18:24:00,SystemResetWarning,0832.2,5.00,000.00,020.0,019.5,000.0,028.4,021.8,26.6,0000.0,0003.18,0004.19,0002.92
2024-02-22 18:25:00,SystemResetWarning,0832.2,4.99,000.00,020.0,019.5,000.0,028.4,021.8,26.5,0000.0,0003.17,0004.19,0002.92
2024-02-22 18:26:00,SystemResetWarning,0832.2,5.00,000.00,020.0,019.5,000.0,028.4,021.8,26.4,0000.0,0003.18,0004.23,0002.92
2024-02-22 18:27:00,SystemResetWarning,0832.2,5.00,000.00,020.0,019.5,000.0,028.4,021.8,26.4,0000.0,0003.17,0004.32,0002.92
2024-02-22 18:28:00,SystemResetWarning,0832.2,5.01,000.00,020.0,019.5,000.0,028.4,021.8,26.5,0000.0,0003.15,0004.17,0002.92
2024-02-22 18:29:00,SystemResetWarning,0832.2,5.00,000.00,020.0,019.5,000.0,028.4,021.8,26.5,0000.0,0003.13,0004.12,0002.90
2024-02-22 18:30:00,SystemResetWarning,0832.2,5.00,000.00,020.0,019.5,000.0,028.4,021.8,26.5,0000.0,0003.11,0004.08,0002.87
2024-02-22 18:31:00,SystemResetWarning,0832.2,4.99,000.00,020.0,019.5,000.0,028.4,021.8,26.6,0000.0,0003.11,0004.10,0002.85
2024-02-22 18:32:00,SystemResetWarning,0832.2,5.00,000.00,020.0,019.5,000.0,028.4,021.8,26.5,0000.0,0003.13,0004.18,0002.85
2024-02-22 18:33:00,SystemResetWarning,0832.2,5.00,000.00,020.0,019.4,000.0,028.4,021.8,26.5,0000.0,0003.11,0004.11,0002.83
2024-02-22 18:34:00,SystemResetWarning,0832.2,5.00,000.00,020.0,019.5,000.0,028.4,021.8,26.4,0000.0,0003.05,0003.99,0002.79
2024-02-22 18:35:00,SystemResetWarning,0832.2,5.00,000.00,020.0,019.5,000.0,028.4,021.8,26.4,0000.0,0003.01,0003.90,0002.78
2024-02-22 18:36:00,SystemResetWarning,0832.2,4.99,000.00,020.0,019.5,000.0,028.4,021.8,26.4,0000.0,0003.01,0003.91,0002.77
2024-02-22 18:37:00,SystemResetWarning,0832.2,4.99,000.00,020.0,019.5,000.0,028.4,021.8,26.5,0000.0,0002.99,0003.85,0002.76
2024-02-22 18:38:00,SystemResetWarning,0832.2,5.00,000.00,020.0,019.5,000.0,028.4,021.8,26.6,0000.0,0002.97,0003.67,0002.76
2024-02-22 18:39:00,SystemResetWarning,0832.2,5.00,000.00,020.0,019.5,000.0,028.4,021.8,26.5,0000.0,0003.01,0003.74,0002.76
2024-02-22 18:40:00,SystemResetWarning,0832.2,5.00,000.00,020.0,019.5,000.0,028.4,021.8,26.5,0000.0,0003.03,0003.79,0002.77
2024-02-22 18:41:00,SystemResetWarning,0832.2,5.01,000.00,020.0,019.5,000.0,028.4,021.8,26.4,0000.0,0003.04,0003.82,0002.77
2024-02-22 18:42:00,SystemResetWarning,0832.2,5.01,000.00,020.0,019.5,000.0,028.4,021.8,26.4,0000.0,0003.04,0003.82,0002.77
2024-02-22 18:43:00,SystemResetWarning,0832.3,5.00,000.00,020.0,019.5,000.0,028.4,021.8,26.5,0000.0,0003.02,0003.74,0002.77
2024-02-22 18:44:00,SystemResetWarning,0832.3,5.00,000.00,020.0,019.5,000.0,028.4,021.8,26.8,0000.0,0003.06,0003.84,0002.79
2024-02-22 18:45:00,SystemResetWarning,0832.2,5.00,000.00,020.0,019.5,000.0,028.4,021.8,26.8,0000.0,0003.07,0003.87,0002.80
2024-02-22 18:46:00,SystemResetWarning,0832.3,5.00,000.00,020.0,019.5,000.0,028.5,021.8,26.7,0000.0,0003.12,0003.97,0002.82
2024-02-22 18:47:00,SystemResetWarning,0832.3,5.00,000.00,020.0,019.5,000.0,028.5,021.8,26.6,0000.0,0003.15,0004.02,0002.87
2024-02-22 18:48:00,SystemResetWarning,0832.3,5.00,000.00,020.0,019.5,000.0,028.4,021.8,26.4,0000.0,0003.17,0004.05,0002.90
2024-02-22 18:49:00,SystemResetWarning,0832.3,5.00,000.00,020.0,019.5,000.0,028.4,021.8,26.5,0000.0,0003.18,0004.10,0002.92
2024-02-22 18:50:00,SystemResetWarning,0832.3,5.00,000.00,020.0,019.5,000.0,028.4,021.8,26.3,0000.0,0003.19,0004.10,0002.94
2024-02-22 18:51:00,SystemResetWarning,0832.3,5.00,000.00,020.0,019.5,000.0,028.4,021.8,26.3,0000.0,0003.19,0004.06,0002.96
2024-02-22 18:52:00,SystemResetWarning,0832.3,5.00,000.00,020.0,019.5,000.0,028.4,021.8,26.3,0000.0,0003.21,0004.06,0003.00
2024-02-22 18:53:00,SystemResetWarning,0832.3,5.00,000.00,020.0,019.5,000.0,028.5,021.8,26.1,0000.0,0003.22,0004.05,0003.05
2024-02-22 18:54:00,SystemResetWarning,0832.3,5.00,000.00,020.0,019.5,000.0,028.5,021.8,26.1,0000.0,0003.25,0004.11,0003.08
2024-02-22 18:55:00,SystemResetWarning,0832.3,5.00,000.00,020.0,019.5,000.0,028.5,021.8,26.1,0000.0,0003.23,0004.01,0003.10
2024-02-22 18:56:00,SystemResetWarning,0832.2,5.00,000.00,020.0,019.5,000.0,028.5,021.8,26.1,0000.0,0003.23,0003.98,0003.10
2024-02-22 18:57:00,SystemResetWarning,0832.3,5.00,000.00,020.0,019.5,000.0,028.5,021.8,26.3,0000.0,0003.21,0003.89,0003.11
2024-02-22 18:58:00,SystemResetWarning,0832.3,5.00,000.00,020.0,019.5,000.0,028.5,021.8,26.2,0000.0,0003.20,0003.88,0003.10
2024-02-22 18:59:00,SystemResetWarning,0832.3,5.00,000.00,020.0,019.5,000.0,028.5,021.8,26.2,0000.0,0003.19,0003.89,0003.09
